FDX137 EKCH-ESSA

Flight info

Callsign FDX137
Flight time 0h 49m
Altitude 35000
Route KEMAX N851 ROXEN DCT MIKNA N851 PELUP Z226 NILUG
Aircraft MD11/H-SDE1E2E3FGHIJ2J3J4J5M1RWXY/LB1D1

Departure

Time 2026-04-24 10:13
Airport Copenhagen Kastrup Airport (EKCH)

Arrival

Time 2026-04-24 11:03
Airport Stockholm-Arlanda Airport (ESSA)
Time Latitude Longitude Altitude Speed Heading
2026-04-24 09:39 55.61717 12.67184 31 ft 0 kts 79°
2026-04-24 09:54 55.61714 12.67158 31 ft 4 kts 79°
2026-04-24 09:55 55.61709 12.67116 31 ft 1 kts 79°
2026-04-24 09:55 55.61706 12.67077 31 ft 4 kts 100°
2026-04-24 09:55 55.61713 12.67040 31 ft 4 kts 139°
2026-04-24 09:55 55.61732 12.67021 31 ft 3 kts 169°
2026-04-24 09:56 55.61757 12.67012 30 ft 2 kts 169°
2026-04-24 09:56 55.61759 12.67011 30 ft 0 kts 169°
2026-04-24 10:01 55.61757 12.67012 31 ft 2 kts 169°
2026-04-24 10:01 55.61739 12.67018 31 ft 2 kts 169°
2026-04-24 10:01 55.61696 12.67033 31 ft 10 kts 169°
2026-04-24 10:02 55.61635 12.67054 30 ft 9 kts 169°
2026-04-24 10:02 55.61580 12.67074 31 ft 8 kts 169°
2026-04-24 10:02 55.61510 12.67098 31 ft 13 kts 169°
2026-04-24 10:02 55.61405 12.67133 31 ft 18 kts 172°
2026-04-24 10:03 55.61288 12.67057 33 ft 18 kts 231°
2026-04-24 10:03 55.61298 12.66914 32 ft 10 kts 309°
2026-04-24 10:03 55.61350 12.66795 32 ft 14 kts 304°
2026-04-24 10:03 55.61419 12.66611 30 ft 23 kts 303°
2026-04-24 10:04 55.61506 12.66378 30 ft 22 kts 303°
2026-04-24 10:04 55.61587 12.66165 31 ft 19 kts 304°
2026-04-24 10:04 55.61655 12.65976 33 ft 18 kts 302°
2026-04-24 10:04 55.61717 12.65804 34 ft 16 kts 303°
2026-04-24 10:05 55.61781 12.65629 32 ft 19 kts 303°
2026-04-24 10:05 55.61857 12.65426 30 ft 22 kts 303°
2026-04-24 10:05 55.61938 12.65209 30 ft 7 kts 303°
2026-04-24 10:05 55.61948 12.65182 30 ft 0 kts 303°
2026-04-24 10:06 55.62008 12.65017 31 ft 14 kts 293°
2026-04-24 10:06 55.61981 12.64917 31 ft 12 kts 214°
2026-04-24 10:07 55.61918 12.64842 31 ft 20 kts 213°
2026-04-24 10:07 55.61792 12.64698 31 ft 21 kts 213°
2026-04-24 10:07 55.61671 12.64560 31 ft 20 kts 213°
2026-04-24 10:07 55.61560 12.64432 31 ft 18 kts 213°
2026-04-24 10:08 55.61458 12.64314 31 ft 17 kts 213°
2026-04-24 10:08 55.61362 12.64204 31 ft 16 kts 213°
2026-04-24 10:08 55.61267 12.64095 31 ft 19 kts 213°
2026-04-24 10:08 55.61160 12.63971 31 ft 18 kts 213°
2026-04-24 10:09 55.61060 12.63857 29 ft 17 kts 213°
2026-04-24 10:09 55.60949 12.63729 31 ft 21 kts 213°
2026-04-24 10:09 55.60811 12.63569 30 ft 26 kts 213°
2026-04-24 10:09 55.60659 12.63394 31 ft 25 kts 213°
2026-04-24 10:10 55.60528 12.63202 31 ft 23 kts 225°
2026-04-24 10:10 55.60440 12.63113 31 ft 12 kts 172°
2026-04-24 10:10 55.60407 12.63156 31 ft 0 kts 134°
2026-04-24 10:11 55.60405 12.63159 31 ft 3 kts 134°
2026-04-24 10:11 55.60367 12.63234 32 ft 13 kts 131°
2026-04-24 10:11 55.60345 12.63352 34 ft 8 kts 71°
2026-04-24 10:12 55.60365 12.63385 33 ft 0 kts 38°
2026-04-24 10:12 55.60365 12.63386 33 ft 1 kts 38°
2026-04-24 10:13 55.60538 12.63650 31 ft 77 kts 42°
2026-04-24 10:13 55.61164 12.64622 36 ft 156 kts 41°
2026-04-24 10:13 55.62058 12.66009 571 ft 184 kts 39°
2026-04-24 10:13 55.63065 12.67566 1387 ft 199 kts 37°
2026-04-24 10:14 55.64131 12.69182 2376 ft 203 kts 36°
2026-04-24 10:14 55.65206 12.70804 3387 ft 203 kts 35°
2026-04-24 10:14 55.66277 12.72429 4363 ft 201 kts 35°
2026-04-24 10:14 55.67323 12.74029 5308 ft 199 kts 35°
2026-04-24 10:15 55.68370 12.75647 6199 ft 198 kts 36°
2026-04-24 10:15 55.69400 12.77263 7031 ft 198 kts 36°
2026-04-24 10:15 55.70445 12.78922 7782 ft 211 kts 37°
2026-04-24 10:15 55.71610 12.80772 8366 ft 236 kts 36°
2026-04-24 10:16 55.72966 12.82776 8676 ft 264 kts 35°
2026-04-24 10:16 55.74402 12.84873 9588 ft 270 kts 36°
2026-04-24 10:16 55.75843 12.87043 10329 ft 284 kts 36°
2026-04-24 10:16 55.77440 12.89470 10449 ft 318 kts 37°
2026-04-24 10:17 55.79193 12.92168 10698 ft 345 kts 38°
2026-04-24 10:17 55.81013 12.95012 11573 ft 350 kts 38°
2026-04-24 10:17 55.82851 12.97906 12488 ft 355 kts 38°
2026-04-24 10:17 55.84715 13.00849 13372 ft 360 kts 38°
2026-04-24 10:18 55.86579 13.03798 14173 ft 365 kts 38°
2026-04-24 10:18 55.88491 13.06825 14912 ft 370 kts 37°
2026-04-24 10:18 55.90438 13.09910 15615 ft 376 kts 38°
2026-04-24 10:18 55.92401 13.13026 16276 ft 381 kts 38°
2026-04-24 10:19 55.94396 13.16196 16961 ft 386 kts 38°
2026-04-24 10:19 55.96415 13.19410 17621 ft 391 kts 37°
2026-04-24 10:19 55.98463 13.22673 18276 ft 396 kts 37°
2026-04-24 10:19 56.00532 13.25975 18833 ft 401 kts 37°
2026-04-24 10:20 56.02623 13.29318 19410 ft 405 kts 37°
2026-04-24 10:20 56.04702 13.32648 19950 ft 409 kts 37°
2026-04-24 10:20 56.06833 13.36064 20500 ft 413 kts 37°
2026-04-24 10:20 56.08979 13.39512 21057 ft 417 kts 37°
2026-04-24 10:21 56.11154 13.42993 21613 ft 420 kts 36°
2026-04-24 10:21 56.13420 13.46318 22242 ft 421 kts 33°
2026-04-24 10:21 56.15771 13.49507 22821 ft 424 kts 32°
2026-04-24 10:21 56.18168 13.52646 23393 ft 428 kts 32°
2026-04-24 10:22 56.20599 13.55796 23927 ft 432 kts 31°
2026-04-24 10:22 56.23051 13.58978 24437 ft 436 kts 31°
2026-04-24 10:22 56.25496 13.62164 24951 ft 440 kts 31°
2026-04-24 10:22 56.27984 13.65423 25476 ft 444 kts 31°
2026-04-24 10:23 56.30489 13.68717 26004 ft 448 kts 31°
2026-04-24 10:23 56.33014 13.72048 26525 ft 452 kts 31°
2026-04-24 10:23 56.35557 13.75419 27076 ft 455 kts 31°
2026-04-24 10:23 56.38120 13.78825 27602 ft 459 kts 31°
2026-04-24 10:24 56.40696 13.82251 28112 ft 462 kts 31°
2026-04-24 10:24 56.43299 13.85714 28619 ft 466 kts 31°
2026-04-24 10:24 56.45918 13.89200 29117 ft 470 kts 31°
2026-04-24 10:24 56.48558 13.92720 29609 ft 473 kts 31°
2026-04-24 10:25 56.51216 13.96267 30075 ft 477 kts 31°
2026-04-24 10:25 56.53896 13.99851 30464 ft 480 kts 31°
2026-04-24 10:25 56.56587 14.03462 30904 ft 481 kts 31°
2026-04-24 10:25 56.59272 14.07082 31441 ft 479 kts 31°
2026-04-24 10:26 56.61937 14.10685 32017 ft 477 kts 31°
2026-04-24 10:26 56.64557 14.14226 32520 ft 475 kts 31°
2026-04-24 10:26 56.67210 14.17811 33012 ft 474 kts 31°
2026-04-24 10:26 56.69852 14.21383 33474 ft 473 kts 30°
2026-04-24 10:27 56.72492 14.24956 33896 ft 472 kts 30°
2026-04-24 10:27 56.75122 14.28522 34272 ft 471 kts 30°
2026-04-24 10:27 56.77767 14.32115 34627 ft 470 kts 31°
2026-04-24 10:27 56.80388 14.35681 34923 ft 471 kts 31°
2026-04-24 10:28 56.83013 14.39259 35026 ft 471 kts 31°
2026-04-24 10:28 56.88269 14.46443 35023 ft 471 kts 31°
2026-04-24 10:29 56.93486 14.53601 35021 ft 471 kts 31°
2026-04-24 10:29 56.98741 14.60838 35036 ft 471 kts 31°
2026-04-24 10:30 57.03960 14.68049 35038 ft 471 kts 31°
2026-04-24 10:30 57.09204 14.75323 35048 ft 472 kts 31°
2026-04-24 10:31 57.14441 14.82613 35043 ft 472 kts 31°
2026-04-24 10:31 57.19678 14.89929 35037 ft 472 kts 31°
2026-04-24 10:32 57.24896 14.97290 35038 ft 472 kts 31°
2026-04-24 10:32 57.30110 15.04707 35070 ft 472 kts 31°
2026-04-24 10:33 57.35288 15.12048 35042 ft 472 kts 32°
2026-04-24 10:33 57.40506 15.19447 35041 ft 472 kts 32°
2026-04-24 10:34 57.45727 15.26874 35040 ft 472 kts 32°
2026-04-24 10:34 57.50932 15.34307 35036 ft 472 kts 32°
2026-04-24 10:35 57.56135 15.41764 35039 ft 472 kts 32°
2026-04-24 10:35 57.61345 15.49260 35039 ft 473 kts 32°
2026-04-24 10:36 57.66549 15.56775 35035 ft 473 kts 32°
2026-04-24 10:36 57.71751 15.64316 35035 ft 473 kts 32°
2026-04-24 10:37 57.76945 15.71874 35031 ft 473 kts 32°
2026-04-24 10:37 57.82135 15.79453 35032 ft 473 kts 32°
2026-04-24 10:38 57.87299 15.87024 35029 ft 473 kts 32°
2026-04-24 10:38 57.92475 15.94725 35028 ft 473 kts 33°
2026-04-24 10:39 57.97641 16.02437 35029 ft 473 kts 33°
2026-04-24 10:39 58.02781 16.10089 35063 ft 475 kts 33°
2026-04-24 10:40 58.07976 16.17832 35029 ft 475 kts 33°
2026-04-24 10:40 58.13159 16.25590 35020 ft 473 kts 33°
2026-04-24 10:40 58.15719 16.29437 34748 ft 468 kts 33°
2026-04-24 10:41 58.18272 16.33280 34264 ft 465 kts 33°
2026-04-24 10:41 58.20776 16.37052 33624 ft 464 kts 33°
2026-04-24 10:41 58.23305 16.40867 33010 ft 465 kts 33°
2026-04-24 10:41 58.25836 16.44690 32459 ft 467 kts 33°
2026-04-24 10:42 58.28307 16.48795 31861 ft 474 kts 41°
2026-04-24 10:42 58.30502 16.53525 31233 ft 480 kts 47°
2026-04-24 10:42 58.32531 16.58612 30628 ft 484 kts 50°
2026-04-24 10:42 58.34493 16.63839 29999 ft 487 kts 51°
2026-04-24 10:43 58.36455 16.69120 29296 ft 488 kts 50°
2026-04-24 10:43 58.38404 16.74321 28611 ft 486 kts 50°
2026-04-24 10:43 58.40379 16.79526 27945 ft 482 kts 50°
2026-04-24 10:43 58.42345 16.84658 27298 ft 477 kts 50°
2026-04-24 10:44 58.44297 16.89729 26656 ft 472 kts 49°
2026-04-24 10:44 58.46240 16.94771 26023 ft 468 kts 49°
2026-04-24 10:44 58.48161 16.99760 25420 ft 464 kts 49°
2026-04-24 10:44 58.50065 17.04717 24787 ft 460 kts 49°
2026-04-24 10:45 58.51928 17.09577 24187 ft 456 kts 49°
2026-04-24 10:45 58.53789 17.14447 23563 ft 449 kts 49°
2026-04-24 10:45 58.55615 17.19238 22871 ft 443 kts 49°
2026-04-24 10:45 58.57425 17.23995 22242 ft 439 kts 49°
2026-04-24 10:46 58.59212 17.28698 21644 ft 435 kts 49°
2026-04-24 10:46 58.60983 17.33367 21052 ft 431 kts 49°
2026-04-24 10:46 58.62736 17.37999 20473 ft 427 kts 50°
2026-04-24 10:46 58.64470 17.42592 19899 ft 423 kts 50°
2026-04-24 10:47 58.66190 17.47155 19332 ft 419 kts 50°
2026-04-24 10:47 58.67893 17.51680 18766 ft 416 kts 50°
2026-04-24 10:47 58.69577 17.56165 18220 ft 412 kts 50°
2026-04-24 10:47 58.71227 17.60569 17589 ft 409 kts 50°
2026-04-24 10:48 58.72885 17.65003 17016 ft 405 kts 50°
2026-04-24 10:48 58.74531 17.69410 16452 ft 401 kts 50°
2026-04-24 10:48 58.76151 17.73758 15908 ft 398 kts 50°
2026-04-24 10:48 58.77749 17.78084 15411 ft 394 kts 51°
2026-04-24 10:49 58.79320 17.82400 15109 ft 392 kts 51°
2026-04-24 10:49 58.80918 17.86546 14959 ft 388 kts 44°
2026-04-24 10:49 58.82970 17.89905 14784 ft 382 kts 29°
2026-04-24 10:49 58.85226 17.92395 14274 ft 374 kts 22°
2026-04-24 10:50 58.87567 17.94544 13787 ft 371 kts 21°
2026-04-24 10:50 58.89910 17.96604 13256 ft 368 kts 21°
2026-04-24 10:50 58.92225 17.98663 12766 ft 365 kts 21°
2026-04-24 10:50 58.94509 18.00741 12261 ft 359 kts 22°
2026-04-24 10:51 58.96760 18.02829 11785 ft 356 kts 22°
2026-04-24 10:51 58.98988 18.04921 11367 ft 353 kts 22°
2026-04-24 10:51 59.01191 18.07007 11158 ft 349 kts 23°
2026-04-24 10:51 59.03285 18.09006 11049 ft 328 kts 22°
2026-04-24 10:52 59.05275 18.10914 10926 ft 310 kts 22°
2026-04-24 10:52 59.06532 18.12117 10865 ft 298 kts 22°
2026-04-24 10:52 59.08401 18.13555 10746 ft 278 kts 11°
2026-04-24 10:52 59.10272 18.13945 10623 ft 267 kts 354°
2026-04-24 10:53 59.12620 18.12694 10223 ft 264 kts 336°
2026-04-24 10:53 59.13748 18.11686 9908 ft 264 kts 334°
2026-04-24 10:53 59.15402 18.10106 9419 ft 265 kts 333°
2026-04-24 10:53 59.17061 18.08505 8944 ft 265 kts 333°
2026-04-24 10:54 59.18720 18.06914 8481 ft 265 kts 334°
2026-04-24 10:54 59.20327 18.05380 8050 ft 257 kts 334°
2026-04-24 10:54 59.21920 18.03865 7671 ft 253 kts 334°
2026-04-24 10:54 59.23511 18.02356 7267 ft 252 kts 334°
2026-04-24 10:55 59.25053 18.00895 6993 ft 234 kts 334°
2026-04-24 10:55 59.26419 17.99599 6697 ft 208 kts 335°
2026-04-24 10:55 59.27724 17.98364 6590 ft 207 kts 335°
2026-04-24 10:55 59.29022 17.97136 6473 ft 207 kts 335°
2026-04-24 10:56 59.30316 17.95911 6328 ft 207 kts 335°
2026-04-24 10:56 59.31593 17.94701 6203 ft 206 kts 335°
2026-04-24 10:56 59.32886 17.93474 6064 ft 206 kts 335°
2026-04-24 10:56 59.34172 17.92255 5877 ft 205 kts 335°
2026-04-24 10:57 59.35451 17.91041 5594 ft 203 kts 335°
2026-04-24 10:57 59.36717 17.89837 5293 ft 201 kts 335°
2026-04-24 10:57 59.37970 17.88646 4970 ft 199 kts 335°
2026-04-24 10:57 59.39236 17.87557 4625 ft 197 kts 346°
2026-04-24 10:58 59.40598 17.87534 4305 ft 199 kts
2026-04-24 10:58 59.41971 17.87866 4054 ft 199 kts
2026-04-24 10:58 59.43355 17.88203 4029 ft 201 kts
2026-04-24 10:58 59.44739 17.88633 3776 ft 201 kts
2026-04-24 10:59 59.46115 17.89125 3520 ft 201 kts
2026-04-24 10:59 59.47475 17.89612 3258 ft 201 kts
2026-04-24 10:59 59.48850 17.90104 2978 ft 200 kts
2026-04-24 10:59 59.50234 17.90600 2685 ft 201 kts
2026-04-24 11:00 59.51551 17.91074 2409 ft 184 kts
2026-04-24 11:00 59.52791 17.91522 2195 ft 177 kts
2026-04-24 11:00 59.53981 17.91948 1945 ft 176 kts
2026-04-24 11:00 59.55181 17.92381 1700 ft 175 kts
2026-04-24 11:01 59.56378 17.92810 1477 ft 168 kts
2026-04-24 11:01 59.57475 17.93208 1235 ft 154 kts
2026-04-24 11:01 59.58528 17.93589 1034 ft 152 kts
2026-04-24 11:01 59.59574 17.93944 836 ft 148 kts
2026-04-24 11:02 59.60540 17.94230 612 ft 142 kts
2026-04-24 11:02 59.61544 17.94673 423 ft 149 kts
2026-04-24 11:02 59.62541 17.95052 212 ft 140 kts
2026-04-24 11:02 59.63424 17.95359 127 ft 115 kts 10°
2026-04-24 11:03 59.64107 17.95601 119 ft 75 kts 11°
2026-04-24 11:03 59.64405 17.95703 117 ft 32 kts
2026-04-24 11:03 59.64608 17.95628 111 ft 24 kts 339°
2026-04-24 11:03 59.64691 17.95541 113 ft 10 kts 309°
2026-04-24 11:04 59.64682 17.95429 112 ft 8 kts 221°
2026-04-24 11:04 59.64631 17.95377 111 ft 10 kts 201°
2026-04-24 11:04 59.64563 17.95272 109 ft 15 kts 233°
2026-04-24 11:04 59.64498 17.95076 112 ft 20 kts 237°
2026-04-24 11:05 59.64414 17.94817 111 ft 25 kts 237°
2026-04-24 11:05 59.64316 17.94497 110 ft 29 kts 238°
2026-04-24 11:05 59.64208 17.94157 110 ft 28 kts 238°
2026-04-24 11:05 59.64111 17.93858 115 ft 24 kts 236°
2026-04-24 11:06 59.64034 17.93616 116 ft 11 kts 239°
2026-04-24 11:06 59.63994 17.93484 115 ft 11 kts 240°
2026-04-24 11:06 59.63982 17.93352 117 ft 9 kts 258°
2026-04-24 11:06 59.63946 17.93241 114 ft 9 kts 233°
2026-04-24 11:07 59.63930 17.93086 115 ft 4 kts 245°
2026-04-24 11:07 59.63911 17.93062 115 ft 2 kts 203°
2026-04-24 11:07 59.63894 17.93047 115 ft 5 kts 204°
2026-04-24 11:08 59.63880 17.93033 115 ft 0 kts 207°
2026-04-24 11:08 59.63878 17.93032 118 ft 0 kts 207°